
Distance (Route):
Temperature : 0°C
Humidity : 0%
Pressure : 0hPa| Receiver | Frames | First received | Last received |
|---|---|---|---|
| KRY50SP | 211 | 2026-09-05 11:53:15 | 2026-09-05 12:36:21 |
| SP3BTT-10 | 88 | 2026-09-05 11:43:39 | 2026-09-05 12:36:14 |
| POL1PZ | 39 | 2026-09-05 11:27:24 | 2026-09-05 11:41:56 |
| OM5KV | 31 | 2026-09-05 12:29:04 | 2026-09-05 12:31:32 |
| PETON7-10 | 16 | 2026-09-05 12:31:25 | 2026-09-05 12:35:38 |
| HA6NAB-11 | 6 | 2026-09-05 12:35:02 | 2026-09-05 12:36:17 |
| OE3JTB-15 | 3 | 2026-09-05 11:37:53 | 2026-09-05 11:38:56 |
| Receiver | Date | Latitude | Longitude | Direction | Speed | Altitude | Climb | Temperature | Humidity | Pressure | Voltage | Killtimer | Uptime | BKT | XDATA |
|---|---|---|---|---|---|---|---|---|---|---|---|---|---|---|---|
| KRY50SP | 2026-09-05 12:36:21 | 51.04635 | 18.46026 | 92° | 37km/h | 25259m | 5.9m/s | 0°C | 0% | 0hPa | 0V | 00:00:00 | 00:00:00 | 00:00:00 | |
| HA6NAB-11 | 2026-09-05 12:36:17 | 51.04630 | 18.45973 | 81° | 26km/h | 25232m | 6.2m/s | 0°C | 0% | 0hPa | 0V | 00:00:00 | 00:00:00 | 00:00:00 | |
| KRY50SP | 2026-09-05 12:36:15 | 51.04629 | 18.45956 | 89° | 22km/h | 25218m | 5.9m/s | 0°C | 0% | 0hPa | 0V | 00:00:00 | 00:00:00 | 00:00:00 | |
| SP3BTT-10 | 2026-09-05 12:36:14 | 51.04628 | 18.45946 | 67° | 20km/h | 25213m | 4.3m/s | 0°C | 0% | 0hPa | 0V | 00:00:00 | 00:00:00 | 00:00:00 | |
| KRY50SP | 2026-09-05 12:36:08 | 51.04609 | 18.45884 | 79° | 26km/h | 25180m | 4.3m/s | 0°C | 0% | 0hPa | 0V | 00:00:00 | 00:00:00 | 00:00:00 | |
| HA6NAB-11 | 2026-09-05 12:36:04 | 51.04606 | 18.45840 | 74° | 29km/h | 25168m | 4.8m/s | 0°C | 0% | 0hPa | 0V | 00:00:00 | 00:00:00 | 00:00:00 | |
| KRY50SP | 2026-09-05 12:36:03 | 51.04603 | 18.45830 | 49° | 27km/h | 25163m | 4.5m/s | 0°C | 0% | 0hPa | 0V | 00:00:00 | 00:00:00 | 00:00:00 | |
| HA6NAB-11 | 2026-09-05 12:35:58 | 51.04589 | 18.45791 | 68° | 27km/h | 25141m | 4.0m/s | 0°C | 0% | 0hPa | 0V | 00:00:00 | 00:00:00 | 00:00:00 | |
| KRY50SP | 2026-09-05 12:35:57 | 51.04587 | 18.45781 | 79° | 24km/h | 25137m | 3.8m/s | 0°C | 0% | 0hPa | 0V | 00:00:00 | 00:00:00 | 00:00:00 | |
| KRY50SP | 2026-09-05 12:35:51 | 51.04586 | 18.45742 | 60° | 24km/h | 25102m | 8.7m/s | 0°C | 0% | 0hPa | 0V | 00:00:00 | 00:00:00 | 00:00:00 | |
| HA6NAB-11 | 2026-09-05 12:35:50 | 51.04582 | 18.45734 | 50° | 24km/h | 25095m | 8.1m/s | 0°C | 0% | 0hPa | 0V | 00:00:00 | 00:00:00 | 00:00:00 | |
| KRY50SP | 2026-09-05 12:35:46 | 51.04578 | 18.45724 | 93° | 7km/h | 25054m | 5.4m/s | 0°C | 0% | 0hPa | 0V | 00:00:00 | 00:00:00 | 00:00:00 | |
| SP3BTT-10 | 2026-09-05 12:35:44 | 51.04579 | 18.45720 | 142° | 22km/h | 25043m | 7.0m/s | 0°C | 0% | 0hPa | 0V | 00:00:00 | 00:00:00 | 00:00:00 | |
| KRY50SP | 2026-09-05 12:35:40 | 51.04581 | 18.45706 | 62° | 16km/h | 25021m | 7.1m/s | 0°C | 0% | 0hPa | 0V | 00:00:00 | 00:00:00 | 00:00:00 | |
| PETON7-10 | 2026-09-05 12:35:38 | 51.04579 | 18.45694 | 70° | 22km/h | 25005m | 4.4m/s | 0°C | 0% | 0hPa | 0V | 00:00:00 | 00:00:00 | 00:00:00 | |
| KRY50SP | 2026-09-05 12:35:35 | 51.04580 | 18.45675 | 142° | 20km/h | 24994m | 5.7m/s | 0°C | 0% | 0hPa | 0V | 00:00:00 | 00:00:00 | 00:00:00 | |
| KRY50SP | 2026-09-05 12:35:29 | 51.04599 | 18.45636 | 96° | 22km/h | 24956m | 5.3m/s | 0°C | 0% | 0hPa | 0V | 00:00:00 | 00:00:00 | 00:00:00 | |
| HA6NAB-11 | 2026-09-05 12:35:26 | 51.04599 | 18.45602 | 91° | 40km/h | 24938m | 5.9m/s | 0°C | 0% | 0hPa | 0V | 00:00:00 | 00:00:00 | 00:00:00 | |
| KRY50SP | 2026-09-05 12:35:23 | 51.04603 | 18.45564 | 117° | 20km/h | 24917m | 4.8m/s | 0°C | 0% | 0hPa | 0V | 00:00:00 | 00:00:00 | 00:00:00 | |
| PETON7-10 | 2026-09-05 12:35:22 | 51.04605 | 18.45558 | 116° | 27km/h | 24913m | 4.6m/s | 0°C | 0% | 0hPa | 0V | 00:00:00 | 00:00:00 | 00:00:00 | |
| KRY50SP | 2026-09-05 12:35:18 | 51.04612 | 18.45518 | 97° | 33km/h | 24895m | 5.9m/s | 0°C | 0% | 0hPa | 0V | 00:00:00 | 00:00:00 | 00:00:00 | |
| SP3BTT-10 | 2026-09-05 12:35:14 | 51.04606 | 18.45463 | 74° | 29km/h | 24873m | 5.0m/s | 0°C | 0% | 0hPa | 0V | 00:00:00 | 00:00:00 | 00:00:00 | |
| KRY50SP | 2026-09-05 12:35:12 | 51.04601 | 18.45435 | 76° | 26km/h | 24864m | 6.6m/s | 0°C | 0% | 0hPa | 0V | 00:00:00 | 00:00:00 | 00:00:00 | |
| PETON7-10 | 2026-09-05 12:35:07 | 51.04596 | 18.45390 | 88° | 35km/h | 24829m | 8.8m/s | 0°C | 0% | 0hPa | 0V | 00:00:00 | 00:00:00 | 00:00:00 | |
| KRY50SP | 2026-09-05 12:35:06 | 51.04594 | 18.45374 | 75° | 47km/h | 24821m | 5.8m/s | 0°C | 0% | 0hPa | 0V | 00:00:00 | 00:00:00 | 00:00:00 | |
| HA6NAB-11 | 2026-09-05 12:35:02 | 51.04575 | 18.45309 | 67° | 38km/h | 24798m | 6.5m/s | 0°C | 0% | 0hPa | 0V | 00:00:00 | 00:00:00 | 00:00:00 | |
| KRY50SP | 2026-09-05 12:35:00 | 51.04568 | 18.45280 | 87° | 35km/h | 24785m | 5.8m/s | 0°C | 0% | 0hPa | 0V | 00:00:00 | 00:00:00 | 00:00:00 | |
| KRY50SP | 2026-09-05 12:34:54 | 51.04562 | 18.45223 | 72° | 27km/h | 24750m | 7.5m/s | 0°C | 0% | 0hPa | 0V | 00:00:00 | 00:00:00 | 00:00:00 | |
| PETON7-10 | 2026-09-05 12:34:52 | 51.04557 | 18.45201 | 68° | 29km/h | 24740m | 6.1m/s | 0°C | 0% | 0hPa | 0V | 00:00:00 | 00:00:00 | 00:00:00 | |
| KRY50SP | 2026-09-05 12:34:48 | 51.04549 | 18.45157 | 85° | 33km/h | 24717m | 5.2m/s | 0°C | 0% | 0hPa | 0V | 00:00:00 | 00:00:00 | 00:00:00 | |
| SP3BTT-10 | 2026-09-05 12:34:44 | 51.04545 | 18.45112 | 46° | 31km/h | 24692m | 5.6m/s | 0°C | 0% | 0hPa | 0V | 00:00:00 | 00:00:00 | 00:00:00 | |
| KRY50SP | 2026-09-05 12:34:42 | 51.04534 | 18.45093 | 48° | 31km/h | 24681m | 5.2m/s | 0°C | 0% | 0hPa | 0V | 00:00:00 | 00:00:00 | 00:00:00 | |
| KRY50SP | 2026-09-05 12:34:35 | 51.04526 | 18.45025 | 67° | 27km/h | 24641m | 5.7m/s | 0°C | 0% | 0hPa | 0V | 00:00:00 | 00:00:00 | 00:00:00 | |
| PETON7-10 | 2026-09-05 12:34:33 | 51.04520 | 18.45001 | 66° | 33km/h | 24630m | 4.4m/s | 0°C | 0% | 0hPa | 0V | 00:00:00 | 00:00:00 | 00:00:00 | |
| KRY50SP | 2026-09-05 12:34:29 | 51.04496 | 18.44940 | 61° | 38km/h | 24610m | 5.3m/s | 0°C | 0% | 0hPa | 0V | 00:00:00 | 00:00:00 | 00:00:00 | |
| KRY50SP | 2026-09-05 12:34:23 | 51.04479 | 18.44866 | 59° | 37km/h | 24579m | 5.4m/s | 0°C | 0% | 0hPa | 0V | 00:00:00 | 00:00:00 | 00:00:00 | |
| KRY50SP | 2026-09-05 12:34:17 | 51.04446 | 18.44779 | 55° | 35km/h | 24547m | 7.2m/s | 0°C | 0% | 0hPa | 0V | 00:00:00 | 00:00:00 | 00:00:00 | |
| PETON7-10 | 2026-09-05 12:34:15 | 51.04438 | 18.44761 | 63° | 31km/h | 24533m | 5.3m/s | 0°C | 0% | 0hPa | 0V | 00:00:00 | 00:00:00 | 00:00:00 | |
| SP3BTT-10 | 2026-09-05 12:34:14 | 51.04436 | 18.44753 | 75° | 35km/h | 24528m | 5.4m/s | 0°C | 0% | 0hPa | 0V | 00:00:00 | 00:00:00 | 00:00:00 | |
| KRY50SP | 2026-09-05 12:34:11 | 51.04426 | 18.44724 | 58° | 33km/h | 24511m | 6.1m/s | 0°C | 0% | 0hPa | 0V | 00:00:00 | 00:00:00 | 00:00:00 | |
| KRY50SP | 2026-09-05 12:34:05 | 51.04390 | 18.44647 | 41° | 38km/h | 24478m | 6.6m/s | 0°C | 0% | 0hPa | 0V | 00:00:00 | 00:00:00 | 00:00:00 | |
| KRY50SP | 2026-09-05 12:34:00 | 51.04368 | 18.44610 | 42° | 35km/h | 24446m | 5.4m/s | 0°C | 0% | 0hPa | 0V | 00:00:00 | 00:00:00 | 00:00:00 | |
| PETON7-10 | 2026-09-05 12:33:58 | 51.04351 | 18.44590 | 37° | 38km/h | 24436m | 6.1m/s | 0°C | 0% | 0hPa | 0V | 00:00:00 | 00:00:00 | 00:00:00 | |
| KRY50SP | 2026-09-05 12:33:54 | 51.04326 | 18.44557 | 50° | 26km/h | 24413m | 6.8m/s | 0°C | 0% | 0hPa | 0V | 00:00:00 | 00:00:00 | 00:00:00 | |
| KRY50SP | 2026-09-05 12:33:47 | 51.04273 | 18.44534 | 5° | 42km/h | 24374m | 6.8m/s | 0°C | 0% | 0hPa | 0V | 00:00:00 | 00:00:00 | 00:00:00 | |
| SP3BTT-10 | 2026-09-05 12:33:44 | 51.04244 | 18.44516 | 28° | 26km/h | 24358m | 6.5m/s | 0°C | 0% | 0hPa | 0V | 00:00:00 | 00:00:00 | 00:00:00 | |
| PETON7-10 | 2026-09-05 12:33:43 | 51.04238 | 18.44511 | 32° | 26km/h | 24350m | 7.5m/s | 0°C | 0% | 0hPa | 0V | 00:00:00 | 00:00:00 | 00:00:00 | |
| KRY50SP | 2026-09-05 12:33:41 | 51.04228 | 18.44506 | 13° | 20km/h | 24339m | 4.8m/s | 0°C | 0% | 0hPa | 0V | 00:00:00 | 00:00:00 | 00:00:00 | |
| KRY50SP | 2026-09-05 12:33:35 | 51.04175 | 18.44491 | 11° | 33km/h | 24302m | 6.7m/s | 0°C | 0% | 0hPa | 0V | 00:00:00 | 00:00:00 | 00:00:00 | |
| KRY50SP | 2026-09-05 12:33:29 | 51.04147 | 18.44490 | 357° | 20km/h | 24270m | 7.2m/s | 0°C | 0% | 0hPa | 0V | 00:00:00 | 00:00:00 | 00:00:00 | |
| PETON7-10 | 2026-09-05 12:33:28 | 51.04140 | 18.44489 | 8° | 22km/h | 24263m | 8.7m/s | 0°C | 0% | 0hPa | 0V | 00:00:00 | 00:00:00 | 00:00:00 | |
| KRY50SP | 2026-09-05 12:33:22 | 51.04092 | 18.44491 | 357° | 20km/h | 24225m | 7.1m/s | 0°C | 0% | 0hPa | 0V | 00:00:00 | 00:00:00 | 00:00:00 | |
| KRY50SP | 2026-09-05 12:33:17 | 51.04069 | 18.44506 | 348° | 31km/h | 24195m | 7.6m/s | 0°C | 0% | 0hPa | 0V | 00:00:00 | 00:00:00 | 00:00:00 | |
| KRY50SP | 2026-09-05 12:33:11 | 51.04034 | 18.44514 | 20° | 5km/h | 24157m | 7.1m/s | 0°C | 0% | 0hPa | 0V | 00:00:00 | 00:00:00 | 00:00:00 | |
| PETON7-10 | 2026-09-05 12:33:08 | 51.04031 | 18.44521 | 318° | 15km/h | 24138m | 6.6m/s | 0°C | 0% | 0hPa | 0V | 00:00:00 | 00:00:00 | 00:00:00 | |
| KRY50SP | 2026-09-05 12:33:05 | 51.04013 | 18.44540 | 343° | 35km/h | 24122m | 5.6m/s | 0°C | 0% | 0hPa | 0V | 00:00:00 | 00:00:00 | 00:00:00 | |
| KRY50SP | 2026-09-05 12:33:00 | 51.03990 | 18.44543 | 279° | 22km/h | 24096m | 8.0m/s | 0°C | 0% | 0hPa | 0V | 00:00:00 | 00:00:00 | 00:00:00 | |
| KRY50SP | 2026-09-05 12:32:54 | 51.03970 | 18.44572 | 333° | 18km/h | 24056m | 5.1m/s | 0°C | 0% | 0hPa | 0V | 00:00:00 | 00:00:00 | 00:00:00 | |
| PETON7-10 | 2026-09-05 12:32:49 | 51.03961 | 18.44573 | 313° | 20km/h | 24032m | 7.5m/s | 0°C | 0% | 0hPa | 0V | 00:00:00 | 00:00:00 | 00:00:00 | |
| SP3BTT-10 | 2026-09-05 12:32:46 | 51.03949 | 18.44594 | 342° | 16km/h | 24014m | 5.9m/s | 0°C | 0% | 0hPa | 0V | 00:00:00 | 00:00:00 | 00:00:00 | |
| KRY50SP | 2026-09-05 12:32:44 | 51.03934 | 18.44602 | 341° | 24km/h | 24006m | 4.1m/s | 0°C | 0% | 0hPa | 0V | 00:00:00 | 00:00:00 | 00:00:00 | |
| KRY50SP | 2026-09-05 12:32:38 | 51.03918 | 18.44597 | 307° | 11km/h | 23978m | 6.3m/s | 0°C | 0% | 0hPa | 0V | 00:00:00 | 00:00:00 | 00:00:00 | |
| KRY50SP | 2026-09-05 12:32:33 | 51.03898 | 18.44640 | 349° | 22km/h | 23948m | 6.5m/s | 0°C | 0% | 0hPa | 0V | 00:00:00 | 00:00:00 | 00:00:00 | |
| PETON7-10 | 2026-09-05 12:32:32 | 51.03893 | 18.44639 | 26° | 13km/h | 23942m | 5.2m/s | 0°C | 0% | 0hPa | 0V | 00:00:00 | 00:00:00 | 00:00:00 | |
| KRY50SP | 2026-09-05 12:32:28 | 51.03892 | 18.44631 | 261° | 9km/h | 23924m | 5.7m/s | 0°C | 0% | 0hPa | 0V | 00:00:00 | 00:00:00 | 00:00:00 | |
| KRY50SP | 2026-09-05 12:32:22 | 51.03875 | 18.44667 | 259° | 13km/h | 23895m | 7.7m/s | 0°C | 0% | 0hPa | 0V | 00:00:00 | 00:00:00 | 00:00:00 | |
| KRY50SP | 2026-09-05 12:32:16 | 51.03875 | 18.44669 | 215° | 4km/h | 23850m | 4.9m/s | 0°C | 0% | 0hPa | 0V | 00:00:00 | 00:00:00 | 00:00:00 | |
| PETON7-10 | 2026-09-05 12:32:12 | 51.03867 | 18.44683 | 311° | 13km/h | 23827m | 4.5m/s | 0°C | 0% | 0hPa | 0V | 00:00:00 | 00:00:00 | 00:00:00 | |
| KRY50SP | 2026-09-05 12:32:10 | 51.03866 | 18.44692 | 223° | 9km/h | 23817m | 6.1m/s | 0°C | 0% | 0hPa | 0V | 00:00:00 | 00:00:00 | 00:00:00 | |
| KRY50SP | 2026-09-05 12:32:05 | 51.03867 | 18.44686 | 34° | 4km/h | 23785m | 9.1m/s | 0°C | 0% | 0hPa | 0V | 00:00:00 | 00:00:00 | 00:00:00 | |
| KRY50SP | 2026-09-05 12:32:00 | 51.03857 | 18.44702 | 315° | 11km/h | 23754m | 4.6m/s | 0°C | 0% | 0hPa | 0V | 00:00:00 | 00:00:00 | 00:00:00 | |
| PETON7-10 | 2026-09-05 12:31:56 | 51.03851 | 18.44703 | 47° | 11km/h | 23732m | 7.8m/s | 0°C | 0% | 0hPa | 0V | 00:00:00 | 00:00:00 | 00:00:00 | |
| KRY50SP | 2026-09-05 12:31:54 | 51.03848 | 18.44699 | 27° | 7km/h | 23721m | 6.7m/s | 0°C | 0% | 0hPa | 0V | 00:00:00 | 00:00:00 | 00:00:00 | |
| KRY50SP | 2026-09-05 12:31:48 | 51.03842 | 18.44713 | 300° | 13km/h | 23689m | 6.5m/s | 0°C | 0% | 0hPa | 0V | 00:00:00 | 00:00:00 | 00:00:00 | |
| PETON7-10 | 2026-09-05 12:31:41 | 51.03838 | 18.44729 | 267° | 16km/h | 23649m | 7.5m/s | 0°C | 0% | 0hPa | 0V | 00:00:00 | 00:00:00 | 00:00:00 | |
| KRY50SP | 2026-09-05 12:31:36 | 51.03836 | 18.44757 | 289° | 7km/h | 23620m | 6.6m/s | 0°C | 0% | 0hPa | 0V | 00:00:00 | 00:00:00 | 00:00:00 | |
| OM5KV | 2026-09-05 12:31:32 | 51.03837 | 18.44770 | 283° | 15km/h | 23602m | 5.0m/s | 0°C | 0% | 0hPa | 0V | 00:00:00 | 00:00:00 | 00:00:00 | |
| KRY50SP | 2026-09-05 12:31:31 | 51.03836 | 18.44776 | 271° | 13km/h | 23598m | 5.0m/s | 0°C | 0% | 0hPa | 0V | 00:00:00 | 00:00:00 | 00:00:00 | |
| KRY50SP | 2026-09-05 12:31:26 | 51.03841 | 18.44814 | 284° | 9km/h | 23570m | 5.9m/s | 0°C | 0% | 0hPa | 0V | 00:00:00 | 00:00:00 | 00:00:00 | |
| PETON7-10 | 2026-09-05 12:31:25 | 51.03841 | 18.44818 | 257° | 13km/h | 23565m | 6.0m/s | 0°C | 0% | 0hPa | 0V | 00:00:00 | 00:00:00 | 00:00:00 | |
| OM5KV | 2026-09-05 12:31:21 | 51.03848 | 18.44832 | 197° | 13km/h | 23542m | 7.2m/s | 0°C | 0% | 0hPa | 0V | 00:00:00 | 00:00:00 | 00:00:00 | |
| OM5KV | 2026-09-05 12:31:20 | 51.03851 | 18.44834 | 244° | 5km/h | 23536m | 5.6m/s | 0°C | 0% | 0hPa | 0V | 00:00:00 | 00:00:00 | 00:00:00 | |
| SP3BTT-10 | 2026-09-05 12:31:19 | 51.03851 | 18.44837 | 240° | 13km/h | 23532m | 5.3m/s | 0°C | 0% | 0hPa | 0V | 00:00:00 | 00:00:00 | 00:00:00 | |
| KRY50SP | 2026-09-05 12:31:15 | 51.03862 | 18.44860 | 214° | 11km/h | 23513m | 8.1m/s | 0°C | 0% | 0hPa | 0V | 00:00:00 | 00:00:00 | 00:00:00 | |
| OM5KV | 2026-09-05 12:31:09 | 51.03884 | 18.44859 | 190° | 16km/h | 23477m | 5.2m/s | 0°C | 0% | 0hPa | 0V | 00:00:00 | 00:00:00 | 00:00:00 | |
| OM5KV | 2026-09-05 12:31:03 | 51.03901 | 18.44876 | 176° | 24km/h | 23446m | 5.0m/s | 0°C | 0% | 0hPa | 0V | 00:00:00 | 00:00:00 | 00:00:00 | |
| KRY50SP | 2026-09-05 12:31:02 | 51.03906 | 18.44875 | 182° | 20km/h | 23441m | 5.5m/s | 0°C | 0% | 0hPa | 0V | 00:00:00 | 00:00:00 | 00:00:00 | |
| OM5KV | 2026-09-05 12:30:58 | 51.03924 | 18.44879 | 172° | 18km/h | 23421m | 8.4m/s | 0°C | 0% | 0hPa | 0V | 00:00:00 | 00:00:00 | 00:00:00 | |
| KRY50SP | 2026-09-05 12:30:57 | 51.03928 | 18.44877 | 165° | 18km/h | 23415m | 5.0m/s | 0°C | 0% | 0hPa | 0V | 00:00:00 | 00:00:00 | 00:00:00 | |
| OM5KV | 2026-09-05 12:30:52 | 51.03944 | 18.44871 | 154° | 18km/h | 23387m | 6.2m/s | 0°C | 0% | 0hPa | 0V | 00:00:00 | 00:00:00 | 00:00:00 | |
| KRY50SP | 2026-09-05 12:30:51 | 51.03949 | 18.44869 | 158° | 22km/h | 23382m | 5.3m/s | 0°C | 0% | 0hPa | 0V | 00:00:00 | 00:00:00 | 00:00:00 | |
| SP3BTT-10 | 2026-09-05 12:30:48 | 51.03960 | 18.44858 | 146° | 18km/h | 23363m | 4.0m/s | 0°C | 0% | 0hPa | 0V | 00:00:00 | 00:00:00 | 00:00:00 | |
| OM5KV | 2026-09-05 12:30:47 | 51.03964 | 18.44855 | 159° | 20km/h | 23359m | 4.9m/s | 0°C | 0% | 0hPa | 0V | 00:00:00 | 00:00:00 | 00:00:00 | |
| OM5KV | 2026-09-05 12:30:45 | 51.03974 | 18.44849 | 173° | 22km/h | 23349m | 4.7m/s | 0°C | 0% | 0hPa | 0V | 00:00:00 | 00:00:00 | 00:00:00 | |
| OM5KV | 2026-09-05 12:30:41 | 51.03982 | 18.44845 | 80° | 7km/h | 23325m | 4.4m/s | 0°C | 0% | 0hPa | 0V | 00:00:00 | 00:00:00 | 00:00:00 | |
| OM5KV | 2026-09-05 12:30:40 | 51.03983 | 18.44840 | 110° | 16km/h | 23321m | 6.3m/s | 0°C | 0% | 0hPa | 0V | 00:00:00 | 00:00:00 | 00:00:00 | |
| KRY50SP | 2026-09-05 12:30:34 | 51.03995 | 18.44796 | 154° | 11km/h | 23287m | 6.9m/s | 0°C | 0% | 0hPa | 0V | 00:00:00 | 00:00:00 | 00:00:00 | |
| OM5KV | 2026-09-05 12:30:30 | 51.04001 | 18.44793 | 48° | 9km/h | 23265m | 5.5m/s | 0°C | 0% | 0hPa | 0V | 00:00:00 | 00:00:00 | 00:00:00 | |
| OM5KV | 2026-09-05 12:30:29 | 51.03999 | 18.44788 | 60° | 20km/h | 23259m | 4.3m/s | 0°C | 0% | 0hPa | 0V | 00:00:00 | 00:00:00 | 00:00:00 | |
| KRY50SP | 2026-09-05 12:30:25 | 51.03997 | 18.44745 | 87° | 26km/h | 23243m | 5.0m/s | 0°C | 0% | 0hPa | 0V | 00:00:00 | 00:00:00 | 00:00:00 | |
| OM5KV | 2026-09-05 12:30:24 | 51.03996 | 18.44738 | 68° | 16km/h | 23237m | 5.5m/s | 0°C | 0% | 0hPa | 0V | 00:00:00 | 00:00:00 | 00:00:00 | |
| OM5KV | 2026-09-05 12:30:23 | 51.03994 | 18.44733 | 42° | 11km/h | 23232m | 5.3m/s | 0°C | 0% | 0hPa | 0V | 00:00:00 | 00:00:00 | 00:00:00 | |
| KRY50SP | 2026-09-05 12:30:20 | 51.03993 | 18.44732 | 199° | 2km/h | 23215m | 3.9m/s | 0°C | 0% | 0hPa | 0V | 00:00:00 | 00:00:00 | 00:00:00 | |
| OM5KV | 2026-09-05 12:30:19 | 51.03993 | 18.44731 | 53° | 11km/h | 23210m | 4.6m/s | 0°C | 0% | 0hPa | 0V | 00:00:00 | 00:00:00 | 00:00:00 | |
| KRY50SP | 2026-09-05 12:30:14 | 51.03978 | 18.44689 | 78° | 27km/h | 23181m | 2.3m/s | 0°C | 0% | 0hPa | 0V | 00:00:00 | 00:00:00 | 00:00:00 | |
| OM5KV | 2026-09-05 12:30:13 | 51.03976 | 18.44679 | 67° | 27km/h | 23178m | 4.6m/s | 0°C | 0% | 0hPa | 0V | 00:00:00 | 00:00:00 | 00:00:00 | |
| KRY50SP | 2026-09-05 12:30:09 | 51.03964 | 18.44671 | 311° | 7km/h | 23159m | 4.1m/s | 0°C | 0% | 0hPa | 0V | 00:00:00 | 00:00:00 | 00:00:00 | |
| SP3BTT-10 | 2026-09-05 12:30:08 | 51.03964 | 18.44673 | 352° | 15km/h | 23155m | 3.2m/s | 0°C | 0% | 0hPa | 0V | 00:00:00 | 00:00:00 | 00:00:00 | |
| OM5KV | 2026-09-05 12:30:07 | 51.03962 | 18.44671 | 33° | 13km/h | 23151m | 4.4m/s | 0°C | 0% | 0hPa | 0V | 00:00:00 | 00:00:00 | 00:00:00 | |
| OM5KV | 2026-09-05 12:30:06 | 51.03960 | 18.44667 | 40° | 18km/h | 23146m | 6.3m/s | 0°C | 0% | 0hPa | 0V | 00:00:00 | 00:00:00 | 00:00:00 | |
| OM5KV | 2026-09-05 12:30:00 | 51.03940 | 18.44629 | 26° | 11km/h | 23116m | 5.9m/s | 0°C | 0% | 0hPa | 0V | 00:00:00 | 00:00:00 | 00:00:00 | |
| KRY50SP | 2026-09-05 12:29:57 | 51.03930 | 18.44636 | 312° | 15km/h | 23102m | 5.3m/s | 0°C | 0% | 0hPa | 0V | 00:00:00 | 00:00:00 | 00:00:00 | |
| OM5KV | 2026-09-05 12:29:56 | 51.03928 | 18.44639 | 313° | 11km/h | 23097m | 4.2m/s | 0°C | 0% | 0hPa | 0V | 00:00:00 | 00:00:00 | 00:00:00 | |
| OM5KV | 2026-09-05 12:29:54 | 51.03922 | 18.44641 | 14° | 20km/h | 23087m | 5.6m/s | 0°C | 0% | 0hPa | 0V | 00:00:00 | 00:00:00 | 00:00:00 | |
| KRY50SP | 2026-09-05 12:29:52 | 51.03911 | 18.44634 | 26° | 26km/h | 23077m | 4.3m/s | 0°C | 0% | 0hPa | 0V | 00:00:00 | 00:00:00 | 00:00:00 | |
| OM5KV | 2026-09-05 12:29:49 | 51.03901 | 18.44627 | 3° | 2km/h | 23059m | 4.4m/s | 0°C | 0% | 0hPa | 0V | 00:00:00 | 00:00:00 | 00:00:00 | |
| OM5KV | 2026-09-05 12:29:46 | 51.03896 | 18.44635 | 293° | 15km/h | 23044m | 4.4m/s | 0°C | 0% | 0hPa | 0V | 00:00:00 | 00:00:00 | 00:00:00 | |
| KRY50SP | 2026-09-05 12:29:45 | 51.03895 | 18.44640 | 279° | 13km/h | 23038m | 6.3m/s | 0°C | 0% | 0hPa | 0V | 00:00:00 | 00:00:00 | 00:00:00 | |
| OM5KV | 2026-09-05 12:29:41 | 51.03889 | 18.44650 | 19° | 18km/h | 23017m | 5.8m/s | 0°C | 0% | 0hPa | 0V | 00:00:00 | 00:00:00 | 00:00:00 | |
| KRY50SP | 2026-09-05 12:29:40 | 51.03884 | 18.44647 | 32° | 18km/h | 23011m | 4.6m/s | 0°C | 0% | 0hPa | 0V | 00:00:00 | 00:00:00 | 00:00:00 | |
| OM5KV | 2026-09-05 12:29:35 | 51.03884 | 18.44640 | 282° | 4km/h | 22982m | 4.6m/s | 0°C | 0% | 0hPa | 0V | 00:00:00 | 00:00:00 | 00:00:00 | |
| KRY50SP | 2026-09-05 12:29:34 | 51.03884 | 18.44642 | 280° | 4km/h | 22977m | 4.2m/s | 0°C | 0% | 0hPa | 0V | 00:00:00 | 00:00:00 | 00:00:00 | |
| KRY50SP | 2026-09-05 12:29:29 | 51.03888 | 18.44630 | 114° | 7km/h | 22950m | 5.8m/s | 0°C | 0% | 0hPa | 0V | 00:00:00 | 00:00:00 | 00:00:00 | |
| OM5KV | 2026-09-05 12:29:26 | 51.03892 | 18.44627 | 183° | 9km/h | 22932m | 6.2m/s | 0°C | 0% | 0hPa | 0V | 00:00:00 | 00:00:00 | 00:00:00 | |
| KRY50SP | 2026-09-05 12:29:22 | 51.03905 | 18.44627 | 250° | 5km/h | 22912m | 5.9m/s | 0°C | 0% | 0hPa | 0V | 00:00:00 | 00:00:00 | 00:00:00 | |
| OM5KV | 2026-09-05 12:29:21 | 51.03905 | 18.44628 | 9° | 2km/h | 22906m | 4.3m/s | 0°C | 0% | 0hPa | 0V | 00:00:00 | 00:00:00 | 00:00:00 | |
| OM5KV | 2026-09-05 12:29:15 | 51.03922 | 18.44602 | 170° | 18km/h | 22875m | 5.4m/s | 0°C | 0% | 0hPa | 0V | 00:00:00 | 00:00:00 | 00:00:00 | |
| OM5KV | 2026-09-05 12:29:10 | 51.03943 | 18.44601 | 165° | 15km/h | 22846m | 6.2m/s | 0°C | 0% | 0hPa | 0V | 00:00:00 | 00:00:00 | 00:00:00 | |
| OM5KV | 2026-09-05 12:29:04 | 51.03971 | 18.44578 | 163° | 20km/h | 22814m | 6.1m/s | 0°C | 0% | 0hPa | 0V | 00:00:00 | 00:00:00 | 00:00:00 | |
| KRY50SP | 2026-09-05 12:28:58 | 51.03997 | 18.44571 | 160° | 26km/h | 22784m | 5.1m/s | 0°C | 0% | 0hPa | 0V | 00:00:00 | 00:00:00 | 00:00:00 | |
| KRY50SP | 2026-09-05 12:28:53 | 51.04023 | 18.44552 | 158° | 26km/h | 22757m | 4.8m/s | 0°C | 0% | 0hPa | 0V | 00:00:00 | 00:00:00 | 00:00:00 | |
| KRY50SP | 2026-09-05 12:28:47 | 51.04056 | 18.44529 | 172° | 31km/h | 22726m | 4.2m/s | 0°C | 0% | 0hPa | 0V | 00:00:00 | 00:00:00 | 00:00:00 | |
| SP3BTT-10 | 2026-09-05 12:28:44 | 51.04075 | 18.44519 | 149° | 24km/h | 22711m | 3.0m/s | 0°C | 0% | 0hPa | 0V | 00:00:00 | 00:00:00 | 00:00:00 | |
| KRY50SP | 2026-09-05 12:28:40 | 51.04099 | 18.44499 | 155° | 26km/h | 22691m | 4.9m/s | 0°C | 0% | 0hPa | 0V | 00:00:00 | 00:00:00 | 00:00:00 | |
| KRY50SP | 2026-09-05 12:28:35 | 51.04124 | 18.44481 | 173° | 29km/h | 22663m | 3.8m/s | 0°C | 0% | 0hPa | 0V | 00:00:00 | 00:00:00 | 00:00:00 | |
| KRY50SP | 2026-09-05 12:28:29 | 51.04158 | 18.44451 | 152° | 29km/h | 22629m | 4.8m/s | 0°C | 0% | 0hPa | 0V | 00:00:00 | 00:00:00 | 00:00:00 | |
| KRY50SP | 2026-09-05 12:28:23 | 51.04182 | 18.44430 | 150° | 24km/h | 22597m | 4.4m/s | 0°C | 0% | 0hPa | 0V | 00:00:00 | 00:00:00 | 00:00:00 | |
| KRY50SP | 2026-09-05 12:28:17 | 51.04209 | 18.44382 | 144° | 29km/h | 22567m | 5.3m/s | 0°C | 0% | 0hPa | 0V | 00:00:00 | 00:00:00 | 00:00:00 | |
| SP3BTT-10 | 2026-09-05 12:28:13 | 51.04226 | 18.44361 | 148° | 22km/h | 22546m | 3.9m/s | 0°C | 0% | 0hPa | 0V | 00:00:00 | 00:00:00 | 00:00:00 | |
| KRY50SP | 2026-09-05 12:28:11 | 51.04236 | 18.44350 | 143° | 27km/h | 22535m | 5.5m/s | 0°C | 0% | 0hPa | 0V | 00:00:00 | 00:00:00 | 00:00:00 | |
| KRY50SP | 2026-09-05 12:28:05 | 51.04270 | 18.44303 | 161° | 31km/h | 22501m | 6.3m/s | 0°C | 0% | 0hPa | 0V | 00:00:00 | 00:00:00 | 00:00:00 | |
| KRY50SP | 2026-09-05 12:27:58 | 51.04306 | 18.44256 | 137° | 31km/h | 22462m | 4.4m/s | 0°C | 0% | 0hPa | 0V | 00:00:00 | 00:00:00 | 00:00:00 | |
| KRY50SP | 2026-09-05 12:27:52 | 51.04343 | 18.44222 | 154° | 31km/h | 22427m | 3.3m/s | 0°C | 0% | 0hPa | 0V | 00:00:00 | 00:00:00 | 00:00:00 | |
| KRY50SP | 2026-09-05 12:27:46 | 51.04365 | 18.44178 | 140° | 26km/h | 22395m | 3.5m/s | 0°C | 0% | 0hPa | 0V | 00:00:00 | 00:00:00 | 00:00:00 | |
| KRY50SP | 2026-09-05 12:27:40 | 51.04390 | 18.44141 | 135° | 31km/h | 22363m | 3.5m/s | 0°C | 0% | 0hPa | 0V | 00:00:00 | 00:00:00 | 00:00:00 | |
| KRY50SP | 2026-09-05 12:27:33 | 51.04412 | 18.44094 | 129° | 13km/h | 22328m | 4.6m/s | 0°C | 0% | 0hPa | 0V | 00:00:00 | 00:00:00 | 00:00:00 | |
| KRY50SP | 2026-09-05 12:27:27 | 51.04432 | 18.44054 | 123° | 33km/h | 22297m | 4.4m/s | 0°C | 0% | 0hPa | 0V | 00:00:00 | 00:00:00 | 00:00:00 | |
| KRY50SP | 2026-09-05 12:27:22 | 51.04447 | 18.44010 | 129° | 18km/h | 22270m | 4.8m/s | 0°C | 0% | 0hPa | 0V | 00:00:00 | 00:00:00 | 00:00:00 | |
| KRY50SP | 2026-09-05 12:27:15 | 51.04457 | 18.43950 | 123° | 27km/h | 22230m | 3.5m/s | 0°C | 0% | 0hPa | 0V | 00:00:00 | 00:00:00 | 00:00:00 | |
| KRY50SP | 2026-09-05 12:27:08 | 51.04465 | 18.43877 | 91° | 29km/h | 22196m | 5.0m/s | 0°C | 0% | 0hPa | 0V | 00:00:00 | 00:00:00 | 00:00:00 | |
| KRY50SP | 2026-09-05 12:27:02 | 51.04469 | 18.43813 | 96° | 26km/h | 22166m | 4.7m/s | 0°C | 0% | 0hPa | 0V | 00:00:00 | 00:00:00 | 00:00:00 | |
| KRY50SP | 2026-09-05 12:26:57 | 51.04463 | 18.43760 | 88° | 26km/h | 22142m | 4.0m/s | 0°C | 0% | 0hPa | 0V | 00:00:00 | 00:00:00 | 00:00:00 | |
| KRY50SP | 2026-09-05 12:26:52 | 51.04458 | 18.43710 | 99° | 22km/h | 22112m | 3.8m/s | 0°C | 0% | 0hPa | 0V | 00:00:00 | 00:00:00 | 00:00:00 | |
| KRY50SP | 2026-09-05 12:26:46 | 51.04458 | 18.43667 | 94° | 24km/h | 22081m | 2.6m/s | 0°C | 0% | 0hPa | 0V | 00:00:00 | 00:00:00 | 00:00:00 | |
| KRY50SP | 2026-09-05 12:26:39 | 51.04463 | 18.43608 | 134° | 15km/h | 22042m | 5.0m/s | 0°C | 0% | 0hPa | 0V | 00:00:00 | 00:00:00 | 00:00:00 | |
| KRY50SP | 2026-09-05 12:26:29 | 51.04465 | 18.43527 | 152° | 18km/h | 21988m | 5.4m/s | 0°C | 0% | 0hPa | 0V | 00:00:00 | 00:00:00 | 00:00:00 | |
| KRY50SP | 2026-09-05 12:26:24 | 51.04473 | 18.43503 | 99° | 24km/h | 21962m | 6.3m/s | 0°C | 0% | 0hPa | 0V | 00:00:00 | 00:00:00 | 00:00:00 | |
| KRY50SP | 2026-09-05 12:26:18 | 51.04478 | 18.43462 | 139° | 11km/h | 21935m | 4.7m/s | 0°C | 0% | 0hPa | 0V | 00:00:00 | 00:00:00 | 00:00:00 | |
| KRY50SP | 2026-09-05 12:26:12 | 51.04486 | 18.43414 | 79° | 20km/h | 21901m | 3.5m/s | 0°C | 0% | 0hPa | 0V | 00:00:00 | 00:00:00 | 00:00:00 | |
| KRY50SP | 2026-09-05 12:26:07 | 51.04498 | 18.43389 | 149° | 13km/h | 21875m | 7.2m/s | 0°C | 0% | 0hPa | 0V | 00:00:00 | 00:00:00 | 00:00:00 | |
| KRY50SP | 2026-09-05 12:26:02 | 51.04510 | 18.43372 | 127° | 18km/h | 21847m | 4.3m/s | 0°C | 0% | 0hPa | 0V | 00:00:00 | 00:00:00 | 00:00:00 | |
| KRY50SP | 2026-09-05 12:25:56 | 51.04525 | 18.43333 | 155° | 22km/h | 21818m | 3.1m/s | 0°C | 0% | 0hPa | 0V | 00:00:00 | 00:00:00 | 00:00:00 | |
| KRY50SP | 2026-09-05 12:25:50 | 51.04541 | 18.43311 | 147° | 20km/h | 21790m | 4.2m/s | 0°C | 0% | 0hPa | 0V | 00:00:00 | 00:00:00 | 00:00:00 | |
| SP3BTT-10 | 2026-09-05 12:25:46 | 51.04553 | 18.43284 | 115° | 22km/h | 21771m | 3.1m/s | 0°C | 0% | 0hPa | 0V | 00:00:00 | 00:00:00 | 00:00:00 | |
| KRY50SP | 2026-09-05 12:25:44 | 51.04560 | 18.43273 | 159° | 22km/h | 21762m | 5.8m/s | 0°C | 0% | 0hPa | 0V | 00:00:00 | 00:00:00 | 00:00:00 | |
| KRY50SP | 2026-09-05 12:25:36 | 51.04582 | 18.43248 | 127° | 18km/h | 21721m | 3.1m/s | 0°C | 0% | 0hPa | 0V | 00:00:00 | 00:00:00 | 00:00:00 | |
| KRY50SP | 2026-09-05 12:25:31 | 51.04598 | 18.43226 | 156° | 27km/h | 21697m | 4.2m/s | 0°C | 0% | 0hPa | 0V | 00:00:00 | 00:00:00 | 00:00:00 | |
| KRY50SP | 2026-09-05 12:25:25 | 51.04619 | 18.43186 | 125° | 26km/h | 21665m | 3.1m/s | 0°C | 0% | 0hPa | 0V | 00:00:00 | 00:00:00 | 00:00:00 | |
| KRY50SP | 2026-09-05 12:25:20 | 51.04638 | 18.43155 | 131° | 26km/h | 21642m | 6.9m/s | 0°C | 0% | 0hPa | 0V | 00:00:00 | 00:00:00 | 00:00:00 | |
| SP3BTT-10 | 2026-09-05 12:25:16 | 51.04652 | 18.43115 | 109° | 29km/h | 21617m | 5.2m/s | 0°C | 0% | 0hPa | 0V | 00:00:00 | 00:00:00 | 00:00:00 | |
| KRY50SP | 2026-09-05 12:25:14 | 51.04657 | 18.43102 | 116° | 18km/h | 21607m | 6.2m/s | 0°C | 0% | 0hPa | 0V | 00:00:00 | 00:00:00 | 00:00:00 | |
| KRY50SP | 2026-09-05 12:25:08 | 51.04676 | 18.43053 | 116° | 33km/h | 21576m | 6.6m/s | 0°C | 0% | 0hPa | 0V | 00:00:00 | 00:00:00 | 00:00:00 | |
| KRY50SP | 2026-09-05 12:25:02 | 51.04684 | 18.42984 | 89° | 22km/h | 21547m | 5.0m/s | 0°C | 0% | 0hPa | 0V | 00:00:00 | 00:00:00 | 00:00:00 | |
| KRY50SP | 2026-09-05 12:24:54 | 51.04697 | 18.42886 | 90° | 31km/h | 21505m | 2.6m/s | 0°C | 0% | 0hPa | 0V | 00:00:00 | 00:00:00 | 00:00:00 | |
| SP3BTT-10 | 2026-09-05 12:24:46 | 51.04685 | 18.42763 | 94° | 42km/h | 21463m | 2.6m/s | 0°C | 0% | 0hPa | 0V | 00:00:00 | 00:00:00 | 00:00:00 | |
| KRY50SP | 2026-09-05 12:24:45 | 51.04685 | 18.42747 | 92° | 40km/h | 21459m | 5.0m/s | 0°C | 0% | 0hPa | 0V | 00:00:00 | 00:00:00 | 00:00:00 | |
| KRY50SP | 2026-09-05 12:24:36 | 51.04670 | 18.42616 | 94° | 42km/h | 21415m | 3.8m/s | 0°C | 0% | 0hPa | 0V | 00:00:00 | 00:00:00 | 00:00:00 | |
| KRY50SP | 2026-09-05 12:24:29 | 51.04650 | 18.42499 | 71° | 42km/h | 21382m | 3.5m/s | 0°C | 0% | 0hPa | 0V | 00:00:00 | 00:00:00 | 00:00:00 | |
| SP3BTT-10 | 2026-09-05 12:24:15 | 51.04603 | 18.42271 | 89° | 29km/h | 21310m | 4.2m/s | 0°C | 0% | 0hPa | 0V | 00:00:00 | 00:00:00 | 00:00:00 | |
| KRY50SP | 2026-09-05 12:23:58 | 51.04568 | 18.42053 | 65° | 38km/h | 21223m | 4.5m/s | 0°C | 0% | 0hPa | 0V | 00:00:00 | 00:00:00 | 00:00:00 | |
| KRY50SP | 2026-09-05 12:23:51 | 51.04549 | 18.41953 | 82° | 26km/h | 21183m | 4.5m/s | 0°C | 0% | 0hPa | 0V | 00:00:00 | 00:00:00 | 00:00:00 | |
| KRY50SP | 2026-09-05 12:23:41 | 51.04532 | 18.41847 | 108° | 24km/h | 21138m | 3.2m/s | 0°C | 0% | 0hPa | 0V | 00:00:00 | 00:00:00 | 00:00:00 | |
| SP3BTT-10 | 2026-09-05 12:23:38 | 51.04538 | 18.41810 | 97° | 35km/h | 21123m | 3.9m/s | 0°C | 0% | 0hPa | 0V | 00:00:00 | 00:00:00 | 00:00:00 | |
| KRY50SP | 2026-09-05 12:23:34 | 51.04542 | 18.41752 | 99° | 29km/h | 21103m | 5.1m/s | 0°C | 0% | 0hPa | 0V | 00:00:00 | 00:00:00 | 00:00:00 | |
| KRY50SP | 2026-09-05 12:23:21 | 51.04546 | 18.41567 | 105° | 37km/h | 21035m | 4.9m/s | 0°C | 0% | 0hPa | 0V | 00:00:00 | 00:00:00 | 00:00:00 | |
| KRY50SP | 2026-09-05 12:22:58 | 51.04529 | 18.41243 | 90° | 29km/h | 20911m | 6.1m/s | 0°C | 0% | 0hPa | 0V | 00:00:00 | 00:00:00 | 00:00:00 | |
| KRY50SP | 2026-09-05 12:22:47 | 51.04497 | 18.41089 | 69° | 33km/h | 20847m | 4.9m/s | 0°C | 0% | 0hPa | 0V | 00:00:00 | 00:00:00 | 00:00:00 | |
| KRY50SP | 2026-09-05 12:22:37 | 51.04460 | 18.40969 | 46° | 33km/h | 20802m | 4.6m/s | 0°C | 0% | 0hPa | 0V | 00:00:00 | 00:00:00 | 00:00:00 | |
| SP3BTT-10 | 2026-09-05 12:22:35 | 51.04452 | 18.40948 | 71° | 29km/h | 20793m | 5.5m/s | 0°C | 0% | 0hPa | 0V | 00:00:00 | 00:00:00 | 00:00:00 | |
| KRY50SP | 2026-09-05 12:22:31 | 51.04444 | 18.40903 | 66° | 29km/h | 20772m | 5.8m/s | 0°C | 0% | 0hPa | 0V | 00:00:00 | 00:00:00 | 00:00:00 | |
| KRY50SP | 2026-09-05 12:22:16 | 51.04390 | 18.40762 | 54° | 33km/h | 20694m | 5.9m/s | 0°C | 0% | 0hPa | 0V | 00:00:00 | 00:00:00 | 00:00:00 | |
| KRY50SP | 2026-09-05 12:22:00 | 51.04353 | 18.40604 | 70° | 27km/h | 20602m | 5.8m/s | 0°C | 0% | 0hPa | 0V | 00:00:00 | 00:00:00 | 00:00:00 | |
| KRY50SP | 2026-09-05 12:21:51 | 51.04328 | 18.40529 | 51° | 33km/h | 20561m | 6.5m/s | 0°C | 0% | 0hPa | 0V | 00:00:00 | 00:00:00 | 00:00:00 | |
| SP3BTT-10 | 2026-09-05 12:21:49 | 51.04318 | 18.40510 | 62° | 29km/h | 20551m | 6.5m/s | 0°C | 0% | 0hPa | 0V | 00:00:00 | 00:00:00 | 00:00:00 | |
| KRY50SP | 2026-09-05 12:21:43 | 51.04301 | 18.40457 | 64° | 29km/h | 20520m | 6.0m/s | 0°C | 0% | 0hPa | 0V | 00:00:00 | 00:00:00 | 00:00:00 | |
| KRY50SP | 2026-09-05 12:21:35 | 51.04267 | 18.40361 | 69° | 35km/h | 20480m | 4.6m/s | 0°C | 0% | 0hPa | 0V | 00:00:00 | 00:00:00 | 00:00:00 | |
| KRY50SP | 2026-09-05 12:21:28 | 51.04245 | 18.40276 | 66° | 31km/h | 20444m | 6.4m/s | 0°C | 0% | 0hPa | 0V | 00:00:00 | 00:00:00 | 00:00:00 | |
| SP3BTT-10 | 2026-09-05 12:21:19 | 51.04223 | 18.40202 | 83° | 20km/h | 20395m | 6.1m/s | 0°C | 0% | 0hPa | 0V | 00:00:00 | 00:00:00 | 00:00:00 | |
| KRY50SP | 2026-09-05 12:21:16 | 51.04218 | 18.40172 | 50° | 22km/h | 20380m | 5.1m/s | 0°C | 0% | 0hPa | 0V | 00:00:00 | 00:00:00 | 00:00:00 | |
| KRY50SP | 2026-09-05 12:20:54 | 51.04201 | 18.40032 | 81° | 26km/h | 20269m | 4.9m/s | 0°C | 0% | 0hPa | 0V | 00:00:00 | 00:00:00 | 00:00:00 | |
| SP3BTT-10 | 2026-09-05 12:20:47 | 51.04197 | 18.39971 | 62° | 33km/h | 20237m | 3.1m/s | 0°C | 0% | 0hPa | 0V | 00:00:00 | 00:00:00 | 00:00:00 | |
| KRY50SP | 2026-09-05 12:20:27 | 51.04194 | 18.39707 | 89° | 42km/h | 20144m | 5.1m/s | 0°C | 0% | 0hPa | 0V | 00:00:00 | 00:00:00 | 00:00:00 | |
| SP3BTT-10 | 2026-09-05 12:20:14 | 51.04186 | 18.39490 | 75° | 38km/h | 20083m | 5.0m/s | 0°C | 0% | 0hPa | 0V | 00:00:00 | 00:00:00 | 00:00:00 | |
| KRY50SP | 2026-09-05 12:19:52 | 51.04139 | 18.39164 | 80° | 33km/h | 19974m | 4.2m/s | 0°C | 0% | 0hPa | 0V | 00:00:00 | 00:00:00 | 00:00:00 | |
| KRY50SP | 2026-09-05 12:19:46 | 51.04130 | 18.39071 | 78° | 38km/h | 19945m | 3.6m/s | 0°C | 0% | 0hPa | 0V | 00:00:00 | 00:00:00 | 00:00:00 | |
| SP3BTT-10 | 2026-09-05 12:19:43 | 51.04117 | 18.39023 | 58° | 35km/h | 19929m | 4.2m/s | 0°C | 0% | 0hPa | 0V | 00:00:00 | 00:00:00 | 00:00:00 | |
| KRY50SP | 2026-09-05 12:19:37 | 51.04097 | 18.38945 | 64° | 37km/h | 19898m | 4.1m/s | 0°C | 0% | 0hPa | 0V | 00:00:00 | 00:00:00 | 00:00:00 | |
| KRY50SP | 2026-09-05 12:19:32 | 51.04079 | 18.38879 | 53° | 38km/h | 19871m | 4.4m/s | 0°C | 0% | 0hPa | 0V | 00:00:00 | 00:00:00 | 00:00:00 | |
| KRY50SP | 2026-09-05 12:19:27 | 51.04064 | 18.38821 | 65° | 31km/h | 19845m | 5.9m/s | 0°C | 0% | 0hPa | 0V | 00:00:00 | 00:00:00 | 00:00:00 | |
| KRY50SP | 2026-09-05 12:19:21 | 51.04042 | 18.38745 | 43° | 35km/h | 19816m | 5.2m/s | 0°C | 0% | 0hPa | 0V | 00:00:00 | 00:00:00 | 00:00:00 | |
| KRY50SP | 2026-09-05 12:18:57 | 51.03960 | 18.38516 | 73° | 22km/h | 19691m | 7.0m/s | 0°C | 0% | 0hPa | 0V | 00:00:00 | 00:00:00 | 00:00:00 | |
| KRY50SP | 2026-09-05 12:18:51 | 51.03951 | 18.38452 | 87° | 26km/h | 19661m | 6.9m/s | 0°C | 0% | 0hPa | 0V | 00:00:00 | 00:00:00 | 00:00:00 | |
| KRY50SP | 2026-09-05 12:18:37 | 51.03939 | 18.38312 | 76° | 26km/h | 19590m | 6.6m/s | 0°C | 0% | 0hPa | 0V | 00:00:00 | 00:00:00 | 00:00:00 | |
| KRY50SP | 2026-09-05 12:18:28 | 51.03933 | 18.38235 | 107° | 33km/h | 19546m | 7.0m/s | 0°C | 0% | 0hPa | 0V | 00:00:00 | 00:00:00 | 00:00:00 | |
| KRY50SP | 2026-09-05 12:18:22 | 51.03941 | 18.38165 | 62° | 15km/h | 19515m | 7.2m/s | 0°C | 0% | 0hPa | 0V | 00:00:00 | 00:00:00 | 00:00:00 | |
| KRY50SP | 2026-09-05 12:18:16 | 51.03949 | 18.38107 | 112° | 33km/h | 19486m | 5.8m/s | 0°C | 0% | 0hPa | 0V | 00:00:00 | 00:00:00 | 00:00:00 | |
| KRY50SP | 2026-09-05 12:18:11 | 51.03957 | 18.38062 | 96° | 16km/h | 19462m | 5.2m/s | 0°C | 0% | 0hPa | 0V | 00:00:00 | 00:00:00 | 00:00:00 | |
| KRY50SP | 2026-09-05 12:18:04 | 51.03975 | 18.37984 | 116° | 44km/h | 19429m | 5.0m/s | 0°C | 0% | 0hPa | 0V | 00:00:00 | 00:00:00 | 00:00:00 | |
| KRY50SP | 2026-09-05 12:17:59 | 51.03988 | 18.37913 | 101° | 26km/h | 19407m | 6.2m/s | 0°C | 0% | 0hPa | 0V | 00:00:00 | 00:00:00 | 00:00:00 | |
| KRY50SP | 2026-09-05 12:17:52 | 51.03997 | 18.37814 | 101° | 38km/h | 19376m | 3.7m/s | 0°C | 0% | 0hPa | 0V | 00:00:00 | 00:00:00 | 00:00:00 | |
| SP3BTT-10 | 2026-09-05 12:17:46 | 51.04001 | 18.37738 | 99° | 38km/h | 19346m | 4.6m/s | 0°C | 0% | 0hPa | 0V | 00:00:00 | 00:00:00 | 00:00:00 | |
| KRY50SP | 2026-09-05 12:17:40 | 51.04003 | 18.37640 | 102° | 33km/h | 19316m | 4.5m/s | 0°C | 0% | 0hPa | 0V | 00:00:00 | 00:00:00 | 00:00:00 | |
| KRY50SP | 2026-09-05 12:17:34 | 51.04006 | 18.37563 | 78° | 37km/h | 19287m | 6.5m/s | 0°C | 0% | 0hPa | 0V | 00:00:00 | 00:00:00 | 00:00:00 | |
| KRY50SP | 2026-09-05 12:17:28 | 51.04005 | 18.37476 | 99° | 33km/h | 19259m | 5.3m/s | 0°C | 0% | 0hPa | 0V | 00:00:00 | 00:00:00 | 00:00:00 | |
| KRY50SP | 2026-09-05 12:17:22 | 51.04004 | 18.37389 | 71° | 38km/h | 19231m | 6.1m/s | 0°C | 0% | 0hPa | 0V | 00:00:00 | 00:00:00 | 00:00:00 | |
| KRY50SP | 2026-09-05 12:17:16 | 51.03995 | 18.37287 | 95° | 42km/h | 19199m | 4.5m/s | 0°C | 0% | 0hPa | 0V | 00:00:00 | 00:00:00 | 00:00:00 | |
| SP3BTT-10 | 2026-09-05 12:17:15 | 51.03995 | 18.37287 | 94° | 37km/h | 19199m | 4.4m/s | 0°C | 0% | 0hPa | 0V | 00:00:00 | 00:00:00 | 00:00:00 | |
| KRY50SP | 2026-09-05 12:17:09 | 51.03989 | 18.37202 | 73° | 33km/h | 19168m | 4.7m/s | 0°C | 0% | 0hPa | 0V | 00:00:00 | 00:00:00 | 00:00:00 | |
| KRY50SP | 2026-09-05 12:17:03 | 51.03988 | 18.37120 | 90° | 31km/h | 19139m | 6.3m/s | 0°C | 0% | 0hPa | 0V | 00:00:00 | 00:00:00 | 00:00:00 | |
| KRY50SP | 2026-09-05 12:16:57 | 51.03975 | 18.37048 | 85° | 33km/h | 19109m | 6.4m/s | 0°C | 0% | 0hPa | 0V | 00:00:00 | 00:00:00 | 00:00:00 | |
| KRY50SP | 2026-09-05 12:16:51 | 51.03973 | 18.36966 | 66° | 26km/h | 19078m | 6.6m/s | 0°C | 0% | 0hPa | 0V | 00:00:00 | 00:00:00 | 00:00:00 | |
| SP3BTT-10 | 2026-09-05 12:16:44 | 51.03945 | 18.36884 | 74° | 31km/h | 19045m | 3.4m/s | 0°C | 0% | 0hPa | 0V | 00:00:00 | 00:00:00 | 00:00:00 | |
| KRY50SP | 2026-09-05 12:16:43 | 51.03942 | 18.36857 | 76° | 37km/h | 19035m | 5.9m/s | 0°C | 0% | 0hPa | 0V | 00:00:00 | 00:00:00 | 00:00:00 | |
| KRY50SP | 2026-09-05 12:16:37 | 51.03923 | 18.36812 | 43° | 33km/h | 19011m | 5.9m/s | 0°C | 0% | 0hPa | 0V | 00:00:00 | 00:00:00 | 00:00:00 | |
| KRY50SP | 2026-09-05 12:16:31 | 51.03902 | 18.36743 | 66° | 33km/h | 18983m | 4.7m/s | 0°C | 0% | 0hPa | 0V | 00:00:00 | 00:00:00 | 00:00:00 | |
| KRY50SP | 2026-09-05 12:16:20 | 51.03857 | 18.36642 | 63° | 24km/h | 18929m | 5.2m/s | 0°C | 0% | 0hPa | 0V | 00:00:00 | 00:00:00 | 00:00:00 | |
| SP3BTT-10 | 2026-09-05 12:16:14 | 51.03837 | 18.36599 | 49° | 27km/h | 18899m | 4.2m/s | 0°C | 0% | 0hPa | 0V | 00:00:00 | 00:00:00 | 00:00:00 | |
| KRY50SP | 2026-09-05 12:16:07 | 51.03815 | 18.36531 | 73° | 24km/h | 18862m | 5.7m/s | 0°C | 0% | 0hPa | 0V | 00:00:00 | 00:00:00 | 00:00:00 | |
| KRY50SP | 2026-09-05 12:15:56 | 51.03787 | 18.36436 | 90° | 37km/h | 18801m | 4.6m/s | 0°C | 0% | 0hPa | 0V | 00:00:00 | 00:00:00 | 00:00:00 | |
| KRY50SP | 2026-09-05 12:15:50 | 51.03775 | 18.36382 | 79° | 15km/h | 18771m | 4.3m/s | 0°C | 0% | 0hPa | 0V | 00:00:00 | 00:00:00 | 00:00:00 | |
| KRY50SP | 2026-09-05 12:15:44 | 51.03765 | 18.36325 | 75° | 27km/h | 18742m | 4.6m/s | 0°C | 0% | 0hPa | 0V | 00:00:00 | 00:00:00 | 00:00:00 | |
| SP3BTT-10 | 2026-09-05 12:15:41 | 51.03757 | 18.36298 | 63° | 29km/h | 18727m | 3.0m/s | 0°C | 0% | 0hPa | 0V | 00:00:00 | 00:00:00 | 00:00:00 | |
| KRY50SP | 2026-09-05 12:15:37 | 51.03754 | 18.36258 | 86° | 26km/h | 18709m | 5.9m/s | 0°C | 0% | 0hPa | 0V | 00:00:00 | 00:00:00 | 00:00:00 | |
| KRY50SP | 2026-09-05 12:15:28 | 51.03739 | 18.36160 | 82° | 24km/h | 18659m | 4.5m/s | 0°C | 0% | 0hPa | 0V | 00:00:00 | 00:00:00 | 00:00:00 | |
| KRY50SP | 2026-09-05 12:15:20 | 51.03734 | 18.36082 | 84° | 31km/h | 18621m | 5.3m/s | 0°C | 0% | 0hPa | 0V | 00:00:00 | 00:00:00 | 00:00:00 | |
| KRY50SP | 2026-09-05 12:15:13 | 51.03728 | 18.36003 | 86° | 29km/h | 18587m | 4.3m/s | 0°C | 0% | 0hPa | 0V | 00:00:00 | 00:00:00 | 00:00:00 | |
| KRY50SP | 2026-09-05 12:15:08 | 51.03733 | 18.35938 | 85° | 33km/h | 18563m | 4.1m/s | 0°C | 0% | 0hPa | 0V | 00:00:00 | 00:00:00 | 00:00:00 | |
| SP3BTT-10 | 2026-09-05 12:15:06 | 51.03731 | 18.35911 | 95° | 44km/h | 18553m | 5.3m/s | 0°C | 0% | 0hPa | 0V | 00:00:00 | 00:00:00 | 00:00:00 | |
| KRY50SP | 2026-09-05 12:14:56 | 51.03742 | 18.35749 | 88° | 44km/h | 18503m | 4.4m/s | 0°C | 0% | 0hPa | 0V | 00:00:00 | 00:00:00 | 00:00:00 | |
| KRY50SP | 2026-09-05 12:14:49 | 51.03744 | 18.35617 | 95° | 47km/h | 18464m | 3.5m/s | 0°C | 0% | 0hPa | 0V | 00:00:00 | 00:00:00 | 00:00:00 | |
| KRY50SP | 2026-09-05 12:14:41 | 51.03740 | 18.35477 | 85° | 44km/h | 18425m | 4.9m/s | 0°C | 0% | 0hPa | 0V | 00:00:00 | 00:00:00 | 00:00:00 | |
| KRY50SP | 2026-09-05 12:14:35 | 51.03742 | 18.35364 | 91° | 47km/h | 18394m | 4.6m/s | 0°C | 0% | 0hPa | 0V | 00:00:00 | 00:00:00 | 00:00:00 | |
| KRY50SP | 2026-09-05 12:14:29 | 51.03746 | 18.35256 | 91° | 47km/h | 18363m | 3.4m/s | 0°C | 0% | 0hPa | 0V | 00:00:00 | 00:00:00 | 00:00:00 | |
| KRY50SP | 2026-09-05 12:14:23 | 51.03755 | 18.35128 | 93° | 58km/h | 18332m | 4.9m/s | 0°C | 0% | 0hPa | 0V | 00:00:00 | 00:00:00 | 00:00:00 | |
| SP3BTT-10 | 2026-09-05 12:14:18 | 51.03757 | 18.35012 | 88° | 62km/h | 18308m | 3.4m/s | 0°C | 0% | 0hPa | 0V | 00:00:00 | 00:00:00 | 00:00:00 | |
| KRY50SP | 2026-09-05 12:14:14 | 51.03758 | 18.34919 | 91° | 64km/h | 18290m | 5.6m/s | 0°C | 0% | 0hPa | 0V | 00:00:00 | 00:00:00 | 00:00:00 | |
| KRY50SP | 2026-09-05 12:14:08 | 51.03765 | 18.34763 | 89° | 57km/h | 18261m | 5.5m/s | 0°C | 0% | 0hPa | 0V | 00:00:00 | 00:00:00 | 00:00:00 | |
| SP3BTT-10 | 2026-09-05 12:13:47 | 51.03764 | 18.34241 | 89° | 58km/h | 18163m | 4.6m/s | 0°C | 0% | 0hPa | 0V | 00:00:00 | 00:00:00 | 00:00:00 | |
| KRY50SP | 2026-09-05 12:13:33 | 51.03772 | 18.33903 | 94° | 58km/h | 18099m | 3.8m/s | 0°C | 0% | 0hPa | 0V | 00:00:00 | 00:00:00 | 00:00:00 | |
| SP3BTT-10 | 2026-09-05 12:13:16 | 51.03802 | 18.33479 | 101° | 77km/h | 18021m | 4.8m/s | 0°C | 0% | 0hPa | 0V | 00:00:00 | 00:00:00 | 00:00:00 | |
| KRY50SP | 2026-09-05 12:12:56 | 51.03844 | 18.32908 | 95° | 77km/h | 17931m | 6.4m/s | 0°C | 0% | 0hPa | 0V | 00:00:00 | 00:00:00 | 00:00:00 | |
| SP3BTT-10 | 2026-09-05 12:12:40 | 51.03837 | 18.32422 | 87° | 73km/h | 17855m | 5.1m/s | 0°C | 0% | 0hPa | 0V | 00:00:00 | 00:00:00 | 00:00:00 | |
| KRY50SP | 2026-09-05 12:12:28 | 51.03834 | 18.32073 | 88° | 77km/h | 17798m | 4.2m/s | 0°C | 0% | 0hPa | 0V | 00:00:00 | 00:00:00 | 00:00:00 | |
| SP3BTT-10 | 2026-09-05 12:12:10 | 51.03834 | 18.31582 | 86° | 68km/h | 17714m | 2.9m/s | 0°C | 0% | 0hPa | 0V | 00:00:00 | 00:00:00 | 00:00:00 | |
| KRY50SP | 2026-09-05 12:11:55 | 51.03856 | 18.31183 | 97° | 78km/h | 17639m | 4.8m/s | 0°C | 0% | 0hPa | 0V | 00:00:00 | 00:00:00 | 00:00:00 | |
| SP3BTT-10 | 2026-09-05 12:11:40 | 51.03897 | 18.30797 | 101° | 73km/h | 17560m | 4.3m/s | 0°C | 0% | 0hPa | 0V | 00:00:00 | 00:00:00 | 00:00:00 | |
| SP3BTT-10 | 2026-09-05 12:11:10 | 51.04034 | 18.29967 | 101° | 73km/h | 17409m | 6.6m/s | 0°C | 0% | 0hPa | 0V | 00:00:00 | 00:00:00 | 00:00:00 | |
| KRY50SP | 2026-09-05 12:10:54 | 51.04073 | 18.29497 | 97° | 75km/h | 17330m | 5.9m/s | 0°C | 0% | 0hPa | 0V | 00:00:00 | 00:00:00 | 00:00:00 | |
| SP3BTT-10 | 2026-09-05 12:10:18 | 51.04075 | 18.28400 | 86° | 69km/h | 17149m | 4.3m/s | 0°C | 0% | 0hPa | 0V | 00:00:00 | 00:00:00 | 00:00:00 | |
| SP3BTT-10 | 2026-09-05 12:09:48 | 51.04113 | 18.27576 | 96° | 80km/h | 16997m | 5.4m/s | 0°C | 0% | 0hPa | 0V | 00:00:00 | 00:00:00 | 00:00:00 | |
| SP3BTT-10 | 2026-09-05 12:09:16 | 51.04127 | 18.26577 | 88° | 80km/h | 16819m | 5.7m/s | 0°C | 0% | 0hPa | 0V | 00:00:00 | 00:00:00 | 00:00:00 | |
| SP3BTT-10 | 2026-09-05 12:08:46 | 51.04095 | 18.25627 | 87° | 75km/h | 16655m | 4.2m/s | 0°C | 0% | 0hPa | 0V | 00:00:00 | 00:00:00 | 00:00:00 | |
| SP3BTT-10 | 2026-09-05 12:08:16 | 51.04053 | 18.24742 | 83° | 73km/h | 16498m | 7.8m/s | 0°C | 0% | 0hPa | 0V | 00:00:00 | 00:00:00 | 00:00:00 | |
| SP3BTT-10 | 2026-09-05 12:07:46 | 51.03992 | 18.23876 | 78° | 69km/h | 16337m | 7.7m/s | 0°C | 0% | 0hPa | 0V | 00:00:00 | 00:00:00 | 00:00:00 | |
| SP3BTT-10 | 2026-09-05 12:07:16 | 51.03935 | 18.23069 | 81° | 68km/h | 16183m | 4.1m/s | 0°C | 0% | 0hPa | 0V | 00:00:00 | 00:00:00 | 00:00:00 | |
| SP3BTT-10 | 2026-09-05 12:06:46 | 51.03891 | 18.22236 | 83° | 68km/h | 16018m | 4.8m/s | 0°C | 0% | 0hPa | 0V | 00:00:00 | 00:00:00 | 00:00:00 | |
| KRY50SP | 2026-09-05 12:06:34 | 51.03858 | 18.21918 | 82° | 69km/h | 15950m | 1.4m/s | 0°C | 0% | 0hPa | 0V | 00:00:00 | 00:00:00 | 00:00:00 | |
| SP3BTT-10 | 2026-09-05 12:06:16 | 51.03816 | 18.21405 | 86° | 80km/h | 15851m | 5.8m/s | 0°C | 0% | 0hPa | 0V | 00:00:00 | 00:00:00 | 00:00:00 | |
| SP3BTT-10 | 2026-09-05 12:05:46 | 51.03780 | 18.20407 | 75° | 71km/h | 15681m | 8.3m/s | 0°C | 0% | 0hPa | 0V | 00:00:00 | 00:00:00 | 00:00:00 | |
| KRY50SP | 2026-09-05 12:05:43 | 51.03764 | 18.20320 | 82° | 80km/h | 15666m | 4.4m/s | 0°C | 0% | 0hPa | 0V | 00:00:00 | 00:00:00 | 00:00:00 | |
| SP3BTT-10 | 2026-09-05 12:05:16 | 51.03677 | 18.19574 | 85° | 69km/h | 15497m | 5.1m/s | 0°C | 0% | 0hPa | 0V | 00:00:00 | 00:00:00 | 00:00:00 | |
| SP3BTT-10 | 2026-09-05 12:04:46 | 51.03623 | 18.18739 | 88° | 82km/h | 15342m | 4.5m/s | 0°C | 0% | 0hPa | 0V | 00:00:00 | 00:00:00 | 00:00:00 | |
| SP3BTT-10 | 2026-09-05 12:04:16 | 51.03664 | 18.17727 | 94° | 86km/h | 15208m | 4.6m/s | 0°C | 0% | 0hPa | 0V | 00:00:00 | 00:00:00 | 00:00:00 | |
| SP3BTT-10 | 2026-09-05 12:03:46 | 51.03727 | 18.16729 | 99° | 97km/h | 15080m | 3.2m/s | 0°C | 0% | 0hPa | 0V | 00:00:00 | 00:00:00 | 00:00:00 | |
| SP3BTT-10 | 2026-09-05 12:03:16 | 51.03867 | 18.15543 | 97° | 111km/h | 14963m | 5.4m/s | 0°C | 0% | 0hPa | 0V | 00:00:00 | 00:00:00 | 00:00:00 | |
| KRY50SP | 2026-09-05 12:03:15 | 51.03871 | 18.15498 | 99° | 115km/h | 14958m | 4.5m/s | 0°C | 0% | 0hPa | 0V | 00:00:00 | 00:00:00 | 00:00:00 | |
| KRY50SP | 2026-09-05 12:03:06 | 51.03902 | 18.15094 | 97° | 108km/h | 14921m | 4.2m/s | 0°C | 0% | 0hPa | 0V | 00:00:00 | 00:00:00 | 00:00:00 | |
| KRY50SP | 2026-09-05 12:02:56 | 51.03923 | 18.14668 | 95° | 106km/h | 14879m | 3.5m/s | 0°C | 0% | 0hPa | 0V | 00:00:00 | 00:00:00 | 00:00:00 | |
| KRY50SP | 2026-09-05 12:02:51 | 51.03927 | 18.14461 | 93° | 102km/h | 14859m | 2.5m/s | 0°C | 0% | 0hPa | 0V | 00:00:00 | 00:00:00 | 00:00:00 | |
| SP3BTT-10 | 2026-09-05 12:02:46 | 51.03929 | 18.14248 | 92° | 108km/h | 14838m | 4.1m/s | 0°C | 0% | 0hPa | 0V | 00:00:00 | 00:00:00 | 00:00:00 | |
| KRY50SP | 2026-09-05 12:02:33 | 51.03923 | 18.13685 | 87° | 110km/h | 14785m | 4.3m/s | 0°C | 0% | 0hPa | 0V | 00:00:00 | 00:00:00 | 00:00:00 | |
| SP3BTT-10 | 2026-09-05 12:02:16 | 51.03902 | 18.12996 | 87° | 97km/h | 14712m | 5.5m/s | 0°C | 0% | 0hPa | 0V | 00:00:00 | 00:00:00 | 00:00:00 | |
| KRY50SP | 2026-09-05 12:02:05 | 51.03900 | 18.12580 | 87° | 102km/h | 14661m | 4.5m/s | 0°C | 0% | 0hPa | 0V | 00:00:00 | 00:00:00 | 00:00:00 | |
| KRY50SP | 2026-09-05 12:01:47 | 51.03904 | 18.11892 | 95° | 102km/h | 14586m | 5.2m/s | 0°C | 0% | 0hPa | 0V | 00:00:00 | 00:00:00 | 00:00:00 | |
| SP3BTT-10 | 2026-09-05 12:01:46 | 51.03906 | 18.11851 | 94° | 95km/h | 14581m | 5.9m/s | 0°C | 0% | 0hPa | 0V | 00:00:00 | 00:00:00 | 00:00:00 | |
| KRY50SP | 2026-09-05 12:01:17 | 51.03912 | 18.10756 | 95° | 89km/h | 14448m | 4.5m/s | 0°C | 0% | 0hPa | 0V | 00:00:00 | 00:00:00 | 00:00:00 | |
| SP3BTT-10 | 2026-09-05 12:01:16 | 51.03914 | 18.10721 | 94° | 91km/h | 14444m | 5.8m/s | 0°C | 0% | 0hPa | 0V | 00:00:00 | 00:00:00 | 00:00:00 | |
| KRY50SP | 2026-09-05 12:01:09 | 51.03921 | 18.10469 | 89° | 91km/h | 14411m | 4.6m/s | 0°C | 0% | 0hPa | 0V | 00:00:00 | 00:00:00 | 00:00:00 | |
| SP3BTT-10 | 2026-09-05 12:00:46 | 51.03920 | 18.09602 | 89° | 99km/h | 14312m | 5.1m/s | 0°C | 0% | 0hPa | 0V | 00:00:00 | 00:00:00 | 00:00:00 | |
| KRY50SP | 2026-09-05 12:00:39 | 51.03916 | 18.09327 | 87° | 102km/h | 14279m | 4.2m/s | 0°C | 0% | 0hPa | 0V | 00:00:00 | 00:00:00 | 00:00:00 | |
| SP3BTT-10 | 2026-09-05 12:00:19 | 51.03921 | 18.08419 | 95° | 97km/h | 14177m | 6.4m/s | 0°C | 0% | 0hPa | 0V | 00:00:00 | 00:00:00 | 00:00:00 | |
| SP3BTT-10 | 2026-09-05 11:59:46 | 51.03996 | 18.07268 | 101° | 100km/h | 14035m | 4.6m/s | 0°C | 0% | 0hPa | 0V | 00:00:00 | 00:00:00 | 00:00:00 | |
| KRY50SP | 2026-09-05 11:59:37 | 51.04031 | 18.06915 | 99° | 97km/h | 13987m | 5.0m/s | 0°C | 0% | 0hPa | 0V | 00:00:00 | 00:00:00 | 00:00:00 | |
| SP3BTT-10 | 2026-09-05 11:59:16 | 51.04088 | 18.06075 | 92° | 99km/h | 13888m | 4.8m/s | 0°C | 0% | 0hPa | 0V | 00:00:00 | 00:00:00 | 00:00:00 | |
| KRY50SP | 2026-09-05 11:59:11 | 51.04100 | 18.05881 | 97° | 95km/h | 13864m | 5.7m/s | 0°C | 0% | 0hPa | 0V | 00:00:00 | 00:00:00 | 00:00:00 | |
| SP3BTT-10 | 2026-09-05 11:58:46 | 51.04182 | 18.04904 | 98° | 108km/h | 13741m | 5.0m/s | 0°C | 0% | 0hPa | 0V | 00:00:00 | 00:00:00 | 00:00:00 | |
| KRY50SP | 2026-09-05 11:58:37 | 51.04225 | 18.04534 | 103° | 113km/h | 13698m | 4.3m/s | 0°C | 0% | 0hPa | 0V | 00:00:00 | 00:00:00 | 00:00:00 | |
| KRY50SP | 2026-09-05 11:58:31 | 51.04261 | 18.04280 | 105° | 102km/h | 13669m | 6.9m/s | 0°C | 0% | 0hPa | 0V | 00:00:00 | 00:00:00 | 00:00:00 | |
| KRY50SP | 2026-09-05 11:58:23 | 51.04311 | 18.03929 | 105° | 110km/h | 13631m | 5.9m/s | 0°C | 0% | 0hPa | 0V | 00:00:00 | 00:00:00 | 00:00:00 | |
| SP3BTT-10 | 2026-09-05 11:58:16 | 51.04358 | 18.03610 | 105° | 120km/h | 13596m | 6.3m/s | 0°C | 0% | 0hPa | 0V | 00:00:00 | 00:00:00 | 00:00:00 | |
| KRY50SP | 2026-09-05 11:57:52 | 51.04524 | 18.02410 | 104° | 128km/h | 13478m | 5.3m/s | 0°C | 0% | 0hPa | 0V | 00:00:00 | 00:00:00 | 00:00:00 | |
| SP3BTT-10 | 2026-09-05 11:57:46 | 51.04555 | 18.02162 | 97° | 126km/h | 13454m | 6.7m/s | 0°C | 0% | 0hPa | 0V | 00:00:00 | 00:00:00 | 00:00:00 | |
| KRY50SP | 2026-09-05 11:57:32 | 51.04624 | 18.01400 | 95° | 130km/h | 13382m | 4.2m/s | 0°C | 0% | 0hPa | 0V | 00:00:00 | 00:00:00 | 00:00:00 | |
| SP3BTT-10 | 2026-09-05 11:57:16 | 51.04657 | 18.00640 | 93° | 124km/h | 13315m | 5.5m/s | 0°C | 0% | 0hPa | 0V | 00:00:00 | 00:00:00 | 00:00:00 | |
| KRY50SP | 2026-09-05 11:57:11 | 51.04663 | 18.00386 | 95° | 130km/h | 13294m | 4.7m/s | 0°C | 0% | 0hPa | 0V | 00:00:00 | 00:00:00 | 00:00:00 | |
| KRY50SP | 2026-09-05 11:57:02 | 51.04674 | 17.99923 | 94° | 131km/h | 13252m | 4.5m/s | 0°C | 0% | 0hPa | 0V | 00:00:00 | 00:00:00 | 00:00:00 | |
| KRY50SP | 2026-09-05 11:56:48 | 51.04673 | 17.99222 | 89° | 117km/h | 13188m | 5.1m/s | 0°C | 0% | 0hPa | 0V | 00:00:00 | 00:00:00 | 00:00:00 | |
| SP3BTT-10 | 2026-09-05 11:56:46 | 51.04671 | 17.99131 | 91° | 117km/h | 13178m | 5.9m/s | 0°C | 0% | 0hPa | 0V | 00:00:00 | 00:00:00 | 00:00:00 | |
| KRY50SP | 2026-09-05 11:56:40 | 51.04665 | 17.98850 | 88° | 122km/h | 13149m | 4.9m/s | 0°C | 0% | 0hPa | 0V | 00:00:00 | 00:00:00 | 00:00:00 | |
| KRY50SP | 2026-09-05 11:56:27 | 51.04662 | 17.98240 | 85° | 102km/h | 13081m | 4.9m/s | 0°C | 0% | 0hPa | 0V | 00:00:00 | 00:00:00 | 00:00:00 | |
| SP3BTT-10 | 2026-09-05 11:56:16 | 51.04658 | 17.97730 | 91° | 115km/h | 13018m | 6.2m/s | 0°C | 0% | 0hPa | 0V | 00:00:00 | 00:00:00 | 00:00:00 | |
| KRY50SP | 2026-09-05 11:56:13 | 51.04661 | 17.97594 | 95° | 111km/h | 13000m | 6.6m/s | 0°C | 0% | 0hPa | 0V | 00:00:00 | 00:00:00 | 00:00:00 | |
| SP3BTT-10 | 2026-09-05 11:55:46 | 51.04763 | 17.96358 | 102° | 122km/h | 12840m | 5.6m/s | 0°C | 0% | 0hPa | 0V | 00:00:00 | 00:00:00 | 00:00:00 | |
| KRY50SP | 2026-09-05 11:55:43 | 51.04779 | 17.96223 | 100° | 111km/h | 12826m | 6.2m/s | 0°C | 0% | 0hPa | 0V | 00:00:00 | 00:00:00 | 00:00:00 | |
| KRY50SP | 2026-09-05 11:55:23 | 51.04883 | 17.95235 | 100° | 139km/h | 12700m | 5.5m/s | 0°C | 0% | 0hPa | 0V | 00:00:00 | 00:00:00 | 00:00:00 | |
| SP3BTT-10 | 2026-09-05 11:55:16 | 51.04913 | 17.94875 | 98° | 137km/h | 12665m | 7.3m/s | 0°C | 0% | 0hPa | 0V | 00:00:00 | 00:00:00 | 00:00:00 | |
| KRY50SP | 2026-09-05 11:55:15 | 51.04925 | 17.94765 | 105° | 141km/h | 12650m | 5.0m/s | 0°C | 0% | 0hPa | 0V | 00:00:00 | 00:00:00 | 00:00:00 | |
| KRY50SP | 2026-09-05 11:54:57 | 51.05001 | 17.93810 | 99° | 131km/h | 12546m | 5.4m/s | 0°C | 0% | 0hPa | 0V | 00:00:00 | 00:00:00 | 00:00:00 | |
| SP3BTT-10 | 2026-09-05 11:54:46 | 51.05033 | 17.93213 | 95° | 139km/h | 12485m | 2.5m/s | 0°C | 0% | 0hPa | 0V | 00:00:00 | 00:00:00 | 00:00:00 | |
| SP3BTT-10 | 2026-09-05 11:54:15 | 51.05109 | 17.91525 | 91° | 137km/h | 12316m | 2.8m/s | 0°C | 0% | 0hPa | 0V | 00:00:00 | 00:00:00 | 00:00:00 | |
| KRY50SP | 2026-09-05 11:54:06 | 51.05138 | 17.91024 | 98° | 128km/h | 12263m | 7.9m/s | 0°C | 0% | 0hPa | 0V | 00:00:00 | 00:00:00 | 00:00:00 | |
| SP3BTT-10 | 2026-09-05 11:53:45 | 51.05252 | 17.89903 | 102° | 142km/h | 12145m | 3.1m/s | 0°C | 0% | 0hPa | 0V | 00:00:00 | 00:00:00 | 00:00:00 | |
| KRY50SP | 2026-09-05 11:53:38 | 51.05286 | 17.89507 | 103° | 135km/h | 12105m | 6.7m/s | 0°C | 0% | 0hPa | 0V | 00:00:00 | 00:00:00 | 00:00:00 | |
| KRY50SP | 2026-09-05 11:53:15 | 51.05470 | 17.88191 | 105° | 157km/h | 11981m | 3.5m/s | 0°C | 0% | 0hPa | 0V | 00:00:00 | 00:00:00 | 00:00:00 | |
| SP3BTT-10 | 2026-09-05 11:52:39 | 51.05768 | 17.85936 | 100° | 162km/h | 11785m | 7.6m/s | 0°C | 0% | 0hPa | 0V | 00:00:00 | 00:00:00 | 00:00:00 | |
| SP3BTT-10 | 2026-09-05 11:52:09 | 51.05912 | 17.83982 | 94° | 164km/h | 11618m | 7.3m/s | 0°C | 0% | 0hPa | 0V | 00:00:00 | 00:00:00 | 00:00:00 | |
| SP3BTT-10 | 2026-09-05 11:51:39 | 51.06049 | 17.82022 | 99° | 164km/h | 11470m | 4.9m/s | 0°C | 0% | 0hPa | 0V | 00:00:00 | 00:00:00 | 00:00:00 | |
| SP3BTT-10 | 2026-09-05 11:51:09 | 51.06131 | 17.80054 | 95° | 164km/h | 11341m | 4.9m/s | 0°C | 0% | 0hPa | 0V | 00:00:00 | 00:00:00 | 00:00:00 | |
| SP3BTT-10 | 2026-09-05 11:50:39 | 51.06176 | 17.78086 | 91° | 161km/h | 11199m | 3.8m/s | 0°C | 0% | 0hPa | 0V | 00:00:00 | 00:00:00 | 00:00:00 | |
| SP3BTT-10 | 2026-09-05 11:50:10 | 51.06253 | 17.76170 | 96° | 161km/h | 11037m | 5.0m/s | 0°C | 0% | 0hPa | 0V | 00:00:00 | 00:00:00 | 00:00:00 | |
| SP3BTT-10 | 2026-09-05 11:49:39 | 51.06376 | 17.74210 | 98° | 166km/h | 10847m | 5.3m/s | 0°C | 0% | 0hPa | 0V | 00:00:00 | 00:00:00 | 00:00:00 | |
| SP3BTT-10 | 2026-09-05 11:49:10 | 51.06461 | 17.72243 | 91° | 168km/h | 10678m | 6.3m/s | 0°C | 0% | 0hPa | 0V | 00:00:00 | 00:00:00 | 00:00:00 | |
| SP3BTT-10 | 2026-09-05 11:48:39 | 51.06571 | 17.70242 | 96° | 166km/h | 10501m | 6.6m/s | 0°C | 0% | 0hPa | 0V | 00:00:00 | 00:00:00 | 00:00:00 | |
| SP3BTT-10 | 2026-09-05 11:48:09 | 51.06698 | 17.68250 | 96° | 175km/h | 10326m | 9.0m/s | 0°C | 0% | 0hPa | 0V | 00:00:00 | 00:00:00 | 00:00:00 | |
| SP3BTT-10 | 2026-09-05 11:47:11 | 51.07038 | 17.64233 | 99° | 175km/h | 9992m | 4.4m/s | 0°C | 0% | 0hPa | 0V | 00:00:00 | 00:00:00 | 00:00:00 | |
| SP3BTT-10 | 2026-09-05 11:46:41 | 51.07219 | 17.62129 | 97° | 175km/h | 9826m | 5.9m/s | 0°C | 0% | 0hPa | 0V | 00:00:00 | 00:00:00 | 00:00:00 | |
| SP3BTT-10 | 2026-09-05 11:46:11 | 51.07386 | 17.60055 | 99° | 173km/h | 9654m | 5.6m/s | 0°C | 0% | 0hPa | 0V | 00:00:00 | 00:00:00 | 00:00:00 | |
| SP3BTT-10 | 2026-09-05 11:45:41 | 51.07559 | 17.58026 | 94° | 166km/h | 9487m | 7.7m/s | 0°C | 0% | 0hPa | 0V | 00:00:00 | 00:00:00 | 00:00:00 | |
| SP3BTT-10 | 2026-09-05 11:45:10 | 51.07736 | 17.55964 | 99° | 168km/h | 9325m | 3.0m/s | 0°C | 0% | 0hPa | 0V | 00:00:00 | 00:00:00 | 00:00:00 | |
| SP3BTT-10 | 2026-09-05 11:44:40 | 51.07920 | 17.53968 | 97° | 173km/h | 9138m | 5.5m/s | 0°C | 0% | 0hPa | 0V | 00:00:00 | 00:00:00 | 00:00:00 | |
| SP3BTT-10 | 2026-09-05 11:44:09 | 51.08110 | 17.51849 | 100° | 175km/h | 8961m | 7.7m/s | 0°C | 0% | 0hPa | 0V | 00:00:00 | 00:00:00 | 00:00:00 | |
| SP3BTT-10 | 2026-09-05 11:43:39 | 51.08277 | 17.49812 | 99° | 153km/h | 8779m | 7.1m/s | 0°C | 0% | 0hPa | 0V | 00:00:00 | 00:00:00 | 00:00:00 | |
| POL1PZ | 2026-09-05 11:41:56 | 51.08986 | 17.42975 | 106° | 155km/h | 8159m | 4.5m/s | 0°C | 0% | 0hPa | 0V | 00:00:00 | 00:00:00 | 00:00:00 | |
| POL1PZ | 2026-09-05 11:41:31 | 51.09099 | 17.41440 | 99° | 164km/h | 8013m | 4.9m/s | 0°C | 0% | 0hPa | 0V | 00:00:00 | 00:00:00 | 00:00:00 | |
| POL1PZ | 2026-09-05 11:41:10 | 51.09189 | 17.40170 | 101° | 153km/h | 7887m | 7.2m/s | 0°C | 0% | 0hPa | 0V | 00:00:00 | 00:00:00 | 00:00:00 | |
| POL1PZ | 2026-09-05 11:40:49 | 51.09258 | 17.38894 | 93° | 142km/h | 7761m | 6.8m/s | 0°C | 0% | 0hPa | 0V | 00:00:00 | 00:00:00 | 00:00:00 | |
| POL1PZ | 2026-09-05 11:40:27 | 51.09324 | 17.37614 | 91° | 150km/h | 7634m | 5.6m/s | 0°C | 0% | 0hPa | 0V | 00:00:00 | 00:00:00 | 00:00:00 | |
| POL1PZ | 2026-09-05 11:40:07 | 51.09399 | 17.36425 | 97° | 142km/h | 7511m | 3.4m/s | 0°C | 0% | 0hPa | 0V | 00:00:00 | 00:00:00 | 00:00:00 | |
| POL1PZ | 2026-09-05 11:39:46 | 51.09467 | 17.35167 | 92° | 150km/h | 7397m | 5.8m/s | 0°C | 0% | 0hPa | 0V | 00:00:00 | 00:00:00 | 00:00:00 | |
| POL1PZ | 2026-09-05 11:39:26 | 51.09505 | 17.33973 | 96° | 141km/h | 7279m | 5.3m/s | 0°C | 0% | 0hPa | 0V | 00:00:00 | 00:00:00 | 00:00:00 | |
| POL1PZ | 2026-09-05 11:39:05 | 51.09562 | 17.32720 | 94° | 146km/h | 7152m | 5.4m/s | 0°C | 0% | 0hPa | 0V | 00:00:00 | 00:00:00 | 00:00:00 | |
| OE3JTB-15 | 2026-09-05 11:38:56 | 51.09569 | 17.32201 | 98° | 146km/h | 7098m | 7.3m/s | 0°C | 0% | 0hPa | 0V | 00:00:00 | 00:00:00 | 00:00:00 | |
| POL1PZ | 2026-09-05 11:38:44 | 51.09586 | 17.31497 | 95° | 150km/h | 7030m | 4.3m/s | 0°C | 0% | 0hPa | 0V | 00:00:00 | 00:00:00 | 00:00:00 | |
| OE3JTB-15 | 2026-09-05 11:38:22 | 51.09650 | 17.30209 | 92° | 142km/h | 6914m | 4.1m/s | 0°C | 0% | 0hPa | 0V | 00:00:00 | 00:00:00 | 00:00:00 | |
| POL1PZ | 2026-09-05 11:38:20 | 51.09649 | 17.30104 | 88° | 135km/h | 6903m | 4.5m/s | 0°C | 0% | 0hPa | 0V | 00:00:00 | 00:00:00 | 00:00:00 | |
| POL1PZ | 2026-09-05 11:38:00 | 51.09650 | 17.28933 | 95° | 155km/h | 6791m | 5.8m/s | 0°C | 0% | 0hPa | 0V | 00:00:00 | 00:00:00 | 00:00:00 | |
| OE3JTB-15 | 2026-09-05 11:37:53 | 51.09656 | 17.28529 | 96° | 137km/h | 6747m | 6.0m/s | 0°C | 0% | 0hPa | 0V | 00:00:00 | 00:00:00 | 00:00:00 | |
| POL1PZ | 2026-09-05 11:37:38 | 51.09686 | 17.27696 | 99° | 130km/h | 6666m | 4.2m/s | 0°C | 0% | 0hPa | 0V | 00:00:00 | 00:00:00 | 00:00:00 | |
| POL1PZ | 2026-09-05 11:37:17 | 51.09718 | 17.26582 | 97° | 146km/h | 6549m | 7.2m/s | 0°C | 0% | 0hPa | 0V | 00:00:00 | 00:00:00 | 00:00:00 | |
| POL1PZ | 2026-09-05 11:36:57 | 51.09705 | 17.25523 | 86° | 146km/h | 6437m | 1.9m/s | 0°C | 0% | 0hPa | 0V | 00:00:00 | 00:00:00 | 00:00:00 | |
| POL1PZ | 2026-09-05 11:36:37 | 51.09704 | 17.24463 | 98° | 139km/h | 6328m | 3.5m/s | 0°C | 0% | 0hPa | 0V | 00:00:00 | 00:00:00 | 00:00:00 | |
| POL1PZ | 2026-09-05 11:36:11 | 51.09714 | 17.23038 | 95° | 119km/h | 6197m | 6.9m/s | 0°C | 0% | 0hPa | 0V | 00:00:00 | 00:00:00 | 00:00:00 | |
| POL1PZ | 2026-09-05 11:35:51 | 51.09688 | 17.21952 | 87° | 137km/h | 6075m | 4.8m/s | 0°C | 0% | 0hPa | 0V | 00:00:00 | 00:00:00 | 00:00:00 | |
| POL1PZ | 2026-09-05 11:35:30 | 51.09715 | 17.20892 | 88° | 130km/h | 5966m | 4.2m/s | 0°C | 0% | 0hPa | 0V | 00:00:00 | 00:00:00 | 00:00:00 | |
| POL1PZ | 2026-09-05 11:35:09 | 51.09787 | 17.19889 | 97° | 133km/h | 5860m | 4.9m/s | 0°C | 0% | 0hPa | 0V | 00:00:00 | 00:00:00 | 00:00:00 | |
| POL1PZ | 2026-09-05 11:34:48 | 51.09854 | 17.18940 | 90° | 102km/h | 5755m | 3.8m/s | 0°C | 0% | 0hPa | 0V | 00:00:00 | 00:00:00 | 00:00:00 | |
| POL1PZ | 2026-09-05 11:34:29 | 51.09884 | 17.18039 | 90° | 122km/h | 5656m | 6.7m/s | 0°C | 0% | 0hPa | 0V | 00:00:00 | 00:00:00 | 00:00:00 | |
| POL1PZ | 2026-09-05 11:34:04 | 51.09940 | 17.16954 | 94° | 106km/h | 5528m | 4.7m/s | 0°C | 0% | 0hPa | 0V | 00:00:00 | 00:00:00 | 00:00:00 | |
| POL1PZ | 2026-09-05 11:33:43 | 51.09975 | 17.16074 | 87° | 97km/h | 5414m | 4.2m/s | 0°C | 0% | 0hPa | 0V | 00:00:00 | 00:00:00 | 00:00:00 | |
| POL1PZ | 2026-09-05 11:33:22 | 51.10036 | 17.15215 | 99° | 110km/h | 5310m | 6.6m/s | 0°C | 0% | 0hPa | 0V | 00:00:00 | 00:00:00 | 00:00:00 | |
| POL1PZ | 2026-09-05 11:33:01 | 51.10051 | 17.14264 | 93° | 119km/h | 5204m | 6.2m/s | 0°C | 0% | 0hPa | 0V | 00:00:00 | 00:00:00 | 00:00:00 | |
| POL1PZ | 2026-09-05 11:32:40 | 51.10107 | 17.13334 | 93° | 104km/h | 5099m | 5.5m/s | 0°C | 0% | 0hPa | 0V | 00:00:00 | 00:00:00 | 00:00:00 | |
| POL1PZ | 2026-09-05 11:32:19 | 51.10177 | 17.12416 | 105° | 110km/h | 5002m | 5.2m/s | 0°C | 0% | 0hPa | 0V | 00:00:00 | 00:00:00 | 00:00:00 | |
| POL1PZ | 2026-09-05 11:31:58 | 51.10203 | 17.11517 | 94° | 106km/h | 4900m | 5.0m/s | 0°C | 0% | 0hPa | 0V | 00:00:00 | 00:00:00 | 00:00:00 | |
| POL1PZ | 2026-09-05 11:31:38 | 51.10261 | 17.10676 | 93° | 115km/h | 4797m | 6.5m/s | 0°C | 0% | 0hPa | 0V | 00:00:00 | 00:00:00 | 00:00:00 | |
| POL1PZ | 2026-09-05 11:31:14 | 51.10308 | 17.09700 | 104° | 91km/h | 4659m | 4.7m/s | 0°C | 0% | 0hPa | 0V | 00:00:00 | 00:00:00 | 00:00:00 | |
| POL1PZ | 2026-09-05 11:30:53 | 51.10361 | 17.08879 | 107° | 95km/h | 4540m | 6.9m/s | 0°C | 0% | 0hPa | 0V | 00:00:00 | 00:00:00 | 00:00:00 | |
| POL1PZ | 2026-09-05 11:30:32 | 51.10393 | 17.08113 | 95° | 111km/h | 4427m | 4.2m/s | 0°C | 0% | 0hPa | 0V | 00:00:00 | 00:00:00 | 00:00:00 | |
| POL1PZ | 2026-09-05 11:30:06 | 51.10445 | 17.07160 | 102° | 78km/h | 4296m | 6.2m/s | 0°C | 0% | 0hPa | 0V | 00:00:00 | 00:00:00 | 00:00:00 | |
| POL1PZ | 2026-09-05 11:29:41 | 51.10517 | 17.06261 | 93° | 95km/h | 4148m | 5.3m/s | 0°C | 0% | 0hPa | 0V | 00:00:00 | 00:00:00 | 00:00:00 | |
| POL1PZ | 2026-09-05 11:29:19 | 51.10545 | 17.05480 | 100° | 88km/h | 4026m | 5.1m/s | 0°C | 0% | 0hPa | 0V | 00:00:00 | 00:00:00 | 00:00:00 | |
| POL1PZ | 2026-09-05 11:28:53 | 51.10574 | 17.04638 | 91° | 73km/h | 3896m | 4.1m/s | 0°C | 0% | 0hPa | 0V | 00:00:00 | 00:00:00 | 00:00:00 | |
| POL1PZ | 2026-09-05 11:28:17 | 51.10601 | 17.03449 | 87° | 89km/h | 3712m | 5.2m/s | 0°C | 0% | 0hPa | 0V | 00:00:00 | 00:00:00 | 00:00:00 | |
| POL1PZ | 2026-09-05 11:27:24 | 51.10686 | 17.01825 | 101° | 78km/h | 3447m | 3.0m/s | 0°C | 0% | 0hPa | 0V | 00:00:00 | 00:00:00 | 00:00:00 |